DECAYED

STARLINK-1869, 47155 (Decayed)

Orbit data source: Space-Track

STARLINK-1869, 47155 was a payload satellite owned by SpaceX/Seattle (US) in LEO that was launched on Wed, 25 Nov 2020 UTC via an FALCON 9 launch vehicle from the Air Force Eastern Test Range (AFETR). Payload-class satellites include a variety of spacecraft equipped with specific instruments for various scientific and technological missions. These include communications satellites like Starlink; space stations such as the ISS; scientific satellites like the Hubble; Earth observation satellites from companies like Planet Labs, Umbra, and HawkEye 360; GPS; miniature CubeSats for education and research; and military/defense satellites.

Not visible in the next 10 days
Identifier
47155, 2020-088AK
Orbit
Decayed
Country
Flag of USUS
Related business
Manufacturer
SpaceX/Seattle
Mission
Decayed Commercial Communications
Bus & Motor
STARLINK, Unknown motor
Mass
260 kg wet, ~248 kg dry
Launch date (UTC)
2020-11-25 (6 years ago)
Launch vehicle
FALCON 9
Launch site
Air Force Eastern Test Range (AFETR)
Object type
Payload
Rocket body
Debris
Shape & HBR
Box + 1 Pan, 10.1 m
Radar Cross Section
13.562 m², Large (>1 m²)

Expand to show TLE details & history
Last TLE update: 1 year ago

TLE from 1 year ago
0 STARLINK-1869
1 47155U 20088AK  25070.54235273  .05959126  12131-4  11671-2 0  9992
2 47155  53.0140  81.1942 0001486  43.3463  50.1706 16.30922686238054
Epoch: 2025-03-11T13:00Z
TLE epoch observation values (Epoch: 2025-03-11T13:00:59.275Z)
Latitude
53.02803°
Longitude
172.36457°
Altitude
195.88 km
Speed
7.796 km/s
True Right ascension
11h 48m 13s
True Declination
52° 50' 54"
Sunlit
Object was in full shadow at epoch
Visualization orbit readout
Latitude
Unknown
Longitude
Unknown
Altitude
Unknown
Speed
Unknown
Apparent Right ascension
Unknown
Apparent Declination
Unknown
Sunlit
N/A
Visualization observer readout
Local Sidereal Time
21:25:33
Azimuth
Unknown
Elevation
Unknown
Doppler factor
Unknown
Orbital elements
Apogee altitude
191.329 km
Perigee altitude
189.377 km
Semi-major axis
6,568.49 km
Eccentricity
0.00015
Inclination
53.014°
RAAN
81.1942°
Arg. of periapsis
43.3463°
True anomaly
50.18368°
Mean anomaly
50.1706°
Eccentric anomaly
50.17714°
Mean motion
4.07704 °/min
Orbital period
88.3 mins
BSTAR
0.0011671
Loading maneuver chart data...
Computing Atmospheric mass density...

Documentation

Showing up to 5 results
|